Regional Weather Roundup
Issued by NWS Cleveland, OH

Home | Current Version | Previous Version | Text Only | Print | Product List | Glossary Off
Versions: 1 2 3 4 5 6 7 8 9 10 11 12 13 14 15 16 17 18 19 20 21 22 23 24 25 26 27 28 29 30 31 32 33 34 35 36 37 38 39 40 41 42 43 44 45 46 47 48 49 50

756
ASUS41 KCLE 010400
RWRCLE
OHIO REGIONAL WEATHER ROUNDUP
NATIONAL WEATHER SERVICE WILMINGTON, OH
1200 AM EDT SAT OCT 01 2016

NOTE: "FAIR" INDICATES FEW OR NO CLOUDS BELOW 12,000 FEET WITH NO
SIGNIFICANT WEATHER AND/OR OBSTRUCTIONS TO VISIBILITY.

OHZ001>008-015>018-024>027-034-035-043-044-010500-
   NORTHWEST OHIO

CITY           SKY/WX    TMP DP  RH WIND       PRES   REMARKS
DEFIANCE       CLOUDY    62  58  86 E6        30.05S
FINDLAY        LGT RAIN  62  57  83 NE10      30.03S
TOLEDO EXPRESS MOCLDY    60  60 100 E9        30.05F
TOLEDO EXEC    CLOUDY    62  60  93 E8        30.07R
LIMA           CLOUDY    60  60 100 NE6       30.02S
$$

OHZ009>014-019>023-028>033-038-089-010500-
   NORTHEAST OHIO

CITY           SKY/WX    TMP DP  RH WIND       PRES   REMARKS
CLE-HOPKINS    CLOUDY    61  55  81 E8        30.09F
CLE-LAKEFRONT  CLOUDY    61  56  83 E8        30.07F
CUY CO. ARPT   NOT AVBL
LORAIN-ELYRIA  LGT RAIN  58  55  90 E6        30.07F
ASHTABULA      CLOUDY    59  56  89 E8        30.12F
AKRON-CANTON   CLOUDY    59  54  83 SE10      30.07F
WOOSTER        NOT AVBL
MANSFIELD      LGT RAIN  59  58  96 E7        30.06R FOG
YOUNGSTOWN     CLOUDY    57  54  89 E10       30.10F
$$

OHZ042-051>053-060>062-070>072-077>081-010500-
  SOUTHWEST OHIO

CITY           SKY/WX    TMP DP  RH WIND       PRES   REMARKS
CINC-COVINGTON CLOUDY    57  54  89 S5        30.03R
CINC-LUNKEN    CLOUDY    54  54 100 CALM      30.04S
HAMILTON       FAIR      51  49  92 CALM      30.03S FOG
DAYTON         FAIR      57  56  96 S8        30.02S FOG
WRIGHT-PAT AFB NOT AVBL
DAYTON GENERAL FAIR      55  51  86 S5        30.02S
WILMINGTON     FAIR      51  51 100 S3        30.03R
$$

OHZ036-037-039>041-045>050-054>059-063>069-073>076-082>088-010500-
  CENTRAL AND SOUTHEAST OHIO

CITY           SKY/WX    TMP DP  RH WIND       PRES   REMARKS
COLUMBUS       CLOUDY    62  61  96 SW7       30.03R
OSU AIRPORT    CLOUDY    62  62 100 SE3       30.02S
BOLTON FIELD   NOT AVBL
RICKENBACK AFB NOT AVBL
NEWARK         CLOUDY    62  60  93 E3        30.03S
MARION         CLOUDY    61  58  90 E7        30.04S
LANCASTER      FAIR      58  57  97 CALM      30.03S
ZANESVILLE     CLOUDY    60  58  92 E8        30.04F
NEW PHILLY     CLOUDY    61  57  87 E10       30.07S
$$




USA.gov is the U.S. government's official web portal to all federal, state and local government web resources and services.